Weather in Nong Bua Lamphu

Thailand     17°08′06″N   102°26′55″E
В апреле 2022 года жителям России запретили посещать сайт meteo.paraplan.net по решению Генеральной прокуратуры. Аудитория сайта уменьшилась в 10 раз. Владельцы сайта не видят смысла в поддержке погодного сервера в таких условиях. Сайт будет закрыт в октябре.
temp.,
°C
wind,
m/s
gust,
m/s
humid.,
%
clouds,
%
prec.,
mm/h
press.,
hPa
HPBL,
m
4 october, tue
tue401:00+22ne119335 7.4 101113
04:00+22nne119361 1.1 101114
07:00+23ne119289 1.1 101377
10:00+27e237744 0.1 1014835
13:00+28se347467 3.6 1011942
16:00+28e3371100 0.8 10091018
19:00+25e008378 0.8 101011
22:00+24wsw11869 0.1 101211
5 october, wed
wed501:00+23nnw119034 0.1 101211
04:00+23nne119299 0.0 101118
07:00+24ne129155 0.0 101291
10:00+28n227989 2.0 1013459
13:00+30ene236540 3.9 10101288
16:00+30e226586 0.1 10081219
19:00+26se118059 0.2 101012
22:00+25s118660 0.4 101211
6 october, thu
thu601:00+24se008890 0.9 101111
04:00+24ne1190100 0.1 101016
07:00+24e2293100 0.9 101280
10:00+28ese3575100 1.2 1014811
13:00+30e456599 1.4 10101515
16:00+28se347793 2.9 1009726
19:00+25se118657 3.3 101111
22:00+23e129397 4.3 101318
7 october, fri
fri701:00+23s1193100 6.9 101211
04:00+23nne11936 0.0 101111
07:00+23nne119262 0.1 101367
10:00+27ese237522 2.9 1014709
13:00+29ene236738 4.8 10101279
16:00+29ne137098 0.5 1008667
19:00+25se118196 0.6 101011
22:00+25sw118485 0.1 101211
8 october, sat
sat801:00+23ne1192100 2.3 101211
04:00+23nne11937 0.4 101114
07:00+23ene119315 0.4 101374
10:00+28e127220 0.0 1014839
13:00+30e236739 1.2 10101263
16:00+29ene237211 1.9 1009767
19:00+25ese118271 2.1 101011
22:00+25s11857 0.0 101211